Location: Unspecified
(48.8656°N, 0.0000°E)
Time: 17:03:58
(UTC+00:00)

SR - Pass Details

Date: 29 June 2019
Orbit: 580 x 876 km, 66.7° (Epoch: 19 July)

Event Time Altitude Azimuth Distance (km) Brightness Sun altitude
Rises 02:26:32 0° 217° (SW) 2,788 - -11.1°
Reaches altitude 10° 02:28:43 10° 219° (SW) 1,895 - -10.9°
Exits shadow 02:29:32 15° 220° (SW) 1,575 ? -10.9°
Maximum altitude 02:32:57 79° 307° (NW) 608 ? -10.5°
Drops below altitude 10° 02:37:22 10° 34° (NE) 1,979 ? -10.1°
Sets 02:39:42 0° 36° (NE) 2,924 ? -9.9°
